TimeEST,TemperatureF,Dew PointF,Humidity,Sea Level PressureIn,VisibilityMPH,Wind Direction,Wind SpeedMPH,Gust SpeedMPH,PrecipitationIn,Events,Conditions,WindDirDegrees,DateUTC
12:12 AM,33.8,32.0,93,29.73,5.0,NW,3.5,-,0.01,,Overcast,310,2013-11-27 05:12:00
12:53 AM,33.1,32.0,96,29.75,4.0,WNW,3.5,-,0.03,,Overcast,300,2013-11-27 05:53:00
1:53 AM,33.1,32.0,96,29.75,4.0,NW,3.5,-,0.01,,Overcast,310,2013-11-27 06:53:00
2:49 AM,32.0,30.2,93,29.75,4.0,Calm,Calm,-,N/A,,Overcast,0,2013-11-27 07:49:00
2:53 AM,32.0,30.9,96,29.78,4.0,WNW,5.8,-,N/A,,Overcast,290,2013-11-27 07:53:00
3:14 AM,32.0,30.2,93,29.72,2.5,NW,4.6,-,0.01,,Overcast,320,2013-11-27 08:14:00
3:24 AM,32.0,30.2,93,29.73,2.0,NW,3.5,-,0.01,Snow,Light Snow,310,2013-11-27 08:24:00
3:32 AM,32.0,30.2,93,29.75,1.0,WNW,4.6,-,0.02,Snow,Light Snow,300,2013-11-27 08:32:00
3:53 AM,32.0,30.0,92,29.77,1.2,WNW,4.6,-,0.03,Snow,Light Snow,290,2013-11-27 08:53:00
4:53 AM,30.9,30.0,96,29.77,1.5,West,3.5,-,0.02,Snow,Light Snow,280,2013-11-27 09:53:00
5:37 AM,30.2,30.2,100,29.75,2.0,WNW,5.8,-,0.01,Snow,Light Snow,300,2013-11-27 10:37:00
5:46 AM,30.2,30.2,100,29.76,4.0,Variable,4.6,-,0.01,,Overcast,0,2013-11-27 10:46:00
5:53 AM,30.9,30.0,96,29.78,3.0,WNW,3.5,-,0.01,,Overcast,290,2013-11-27 10:53:00
6:16 AM,30.2,28.4,93,29.76,6.0,WNW,5.8,-,N/A,,Overcast,290,2013-11-27 11:16:00
6:53 AM,30.9,28.9,92,29.79,9.0,WNW,5.8,-,N/A,,Overcast,290,2013-11-27 11:53:00
7:14 AM,30.2,28.4,93,29.76,5.0,WNW,4.6,-,0.01,,Overcast,300,2013-11-27 12:14:00
7:39 AM,30.2,28.4,93,29.76,1.8,WNW,5.8,-,0.01,Snow,Light Snow,300,2013-11-27 12:39:00
7:53 AM,30.9,28.9,92,29.80,1.5,WNW,5.8,-,0.01,Snow,Light Snow,290,2013-11-27 12:53:00
8:18 AM,30.2,30.2,100,29.77,0.8,Variable,3.5,-,0.00,Snow,Light Snow,0,2013-11-27 13:18:00
8:33 AM,30.2,30.2,100,29.77,1.0,West,4.6,-,0.01,Snow,Light Snow,280,2013-11-27 13:33:00
8:53 AM,30.9,30.0,96,29.81,1.2,WNW,4.6,-,0.01,Snow,Light Snow,290,2013-11-27 13:53:00
9:15 AM,30.2,30.2,100,29.79,2.5,WNW,5.8,-,0.01,Snow,Light Snow,290,2013-11-27 14:15:00
9:24 AM,30.2,28.4,93,29.78,4.0,NW,4.6,-,0.01,,Overcast,310,2013-11-27 14:24:00
9:39 AM,30.2,30.2,100,29.78,1.8,WNW,5.8,-,0.01,Snow,Light Snow,300,2013-11-27 14:39:00
9:53 AM,30.9,30.0,96,29.82,2.0,WNW,5.8,-,0.02,Snow,Light Snow,300,2013-11-27 14:53:00
9:57 AM,30.2,28.4,93,29.79,3.0,WNW,6.9,-,0.00,,Overcast,290,2013-11-27 14:57:00
10:08 AM,32.0,28.4,87,29.79,5.0,WNW,6.9,-,0.00,,Overcast,300,2013-11-27 15:08:00
10:19 AM,32.0,28.4,87,29.79,5.0,NW,4.6,-,0.00,,Overcast,310,2013-11-27 15:19:00
10:53 AM,32.0,28.9,88,29.80,6.0,NW,6.9,-,0.00,,Overcast,310,2013-11-27 15:53:00
11:53 AM,30.9,28.0,89,29.77,10.0,WNW,6.9,-,N/A,,Overcast,300,2013-11-27 16:53:00
12:53 PM,30.9,27.0,85,29.79,9.0,NW,6.9,-,N/A,,Overcast,310,2013-11-27 17:53:00
1:38 PM,30.2,26.6,86,29.77,7.0,NW,5.8,18.4,N/A,,Overcast,310,2013-11-27 18:38:00
1:53 PM,30.0,25.0,82,29.81,5.0,WNW,12.7,24.2,N/A,,Haze,300,2013-11-27 18:53:00
2:21 PM,28.4,24.8,86,29.80,10.0,NW,5.8,-,N/A,,Overcast,310,2013-11-27 19:21:00
2:53 PM,28.0,21.9,78,29.86,10.0,Variable,6.9,-,N/A,,Overcast,0,2013-11-27 19:53:00
3:12 PM,28.4,21.2,74,29.84,10.0,NW,9.2,-,N/A,,Overcast,320,2013-11-27 20:12:00
3:43 PM,28.4,21.2,74,29.86,3.0,NW,8.1,-,N/A,,Haze,310,2013-11-27 20:43:00
3:51 PM,26.6,21.2,80,29.87,2.5,NW,9.2,19.6,0.00,Snow,Light Snow,310,2013-11-27 20:51:00
3:53 PM,27.0,21.9,81,29.91,2.5,NW,10.4,19.6,0.00,Snow,Light Snow,310,2013-11-27 20:53:00
4:01 PM,26.6,21.2,80,29.88,4.0,NW,9.2,20.7,0.00,Snow,Light Snow,310,2013-11-27 21:01:00
4:50 PM,26.6,17.6,69,29.91,9.0,WNW,9.2,19.6,0.00,Snow,Light Snow,300,2013-11-27 21:50:00
4:53 PM,26.1,18.0,71,29.96,5.0,NW,10.4,19.6,0.00,Snow,Light Snow,310,2013-11-27 21:53:00
5:06 PM,26.6,17.6,69,29.93,9.0,WNW,9.2,-,0.00,Snow,Light Snow,300,2013-11-27 22:06:00
5:45 PM,24.8,17.6,74,29.96,9.0,WNW,6.9,-,0.00,Snow,Light Snow,300,2013-11-27 22:45:00
5:53 PM,25.0,17.1,72,30.01,9.0,WNW,6.9,19.6,0.00,Snow,Light Snow,300,2013-11-27 22:53:00
6:53 PM,24.1,14.0,65,30.04,9.0,WNW,9.2,20.7,0.00,Snow,Light Snow,290,2013-11-27 23:53:00
7:53 PM,24.1,12.0,60,30.08,10.0,WNW,9.2,19.6,0.00,,Overcast,290,2013-11-28 00:53:00
8:53 PM,24.1,12.9,62,30.09,10.0,West,9.2,16.1,N/A,,Overcast,260,2013-11-28 01:53:00
9:53 PM,24.1,12.9,62,30.12,10.0,West,6.9,-,N/A,,Overcast,280,2013-11-28 02:53:00
10:53 PM,24.1,15.1,69,30.15,10.0,West,6.9,-,N/A,,Overcast,270,2013-11-28 03:53:00
11:53 PM,24.1,12.0,60,30.18,10.0,West,6.9,-,N/A,,Overcast,280,2013-11-28 04:53:00